SCP
0 0 0 0 0 0 0 0 0 0 0 0 0 0 0 0 0 0 0 0 0 0 0 0 0 0 0 0 0 0 0 0 0 0 0 0 0 0 0 0 0 0 0 0
0 0 0 0 0 0 0 0 0 0 0 0 0 0 0 0 0 0 0 0 0 0 0 0 0 0 0 0 0 0 0 0 0 0 0 0 0 0 0 0 0 0 0 0
0 0 0 0 0 0 0 0 0 0 0 0 0 0 0 0 0 0 0 0 0 0 0 0 0 0 0 0 0 0 0 0 0 0 0 0 0 0 0 0 0 0 0 0
0 0 0 0 0 0 0 0 0 0 0 0 0 0 0 0 0 0 0 0 0 0 0 0 0 0 0 0 0 0 0 0 0 0 0 0 0 0 0 0 0 0 0 0
0 0 0 0 0 0 0 0 0 0 0 0 0 0 0 0 0 0 0 0 0 0 0 0 0 0 0 0 0 0 0 0 0 0 0 0 0 0 0 0 0 0 0 0
0 0 0 0 0 0 0 0 0 0 0 0 0 0 0 0 0 0 0 0 0 0 0 0 0 0 0 0 0 0 0 0 0 0 0 0 0 0 0 0 0 0 0 0
0 0 0 0 0 0 0 0 0 0 0 0 0 0 0 0 0 0 0 0 0 0 0 0 0 0 0 0 0 0 0 0 0 0 0 0 0 0 0 0 0 0 0 0
0 0 0 0 0 0 0 0 0 0 0 0 0 0 0 0 0 0 0 0 0 0 0 0 0 0 0 0 0 0 0 0 0 0 0 0 0 0 0 0 0 0 0 0
0 0 0 0 0 0 0 0 0 0 0 0 0 0 0 0 0 0 0 0 0 0 0 0 0 0 0 0 0 0 0 0 0 0 0 0 0 0 0 0 0 0 0 0
0 0 0 0 0 0 0 0 0 0 0 0 0 0 0 0 0 0 0 0 0 0 0 0 0 0 0 0 0 0 0 0 0 0 0 0 0 0 0 0 0 0 0 0
0 0 0 0 0 0 0 0 0 0 0 0 0 0 0 0 0 0 0 0 0 0 0 0 0 0 0 0 0 0 0 0 0 0 0 0 0 0 0 0 0 0 0 0
0 0 0 0 0 0 0 0 0 0 0 0 0 0 0 0 0 0 0 0 0 0 0 0 0 0 0 0 0 0 0 0 0 0 0 0 0 0 0 0 0 0 0 0
0 0 0 0 0 0 0 0 0 0 0 0 0 0 0 0 0 0 0 0 0 0 0 0 0 0 0 0 0 0 0 0 0 0 0 0 0 0 0 0 0 0 0 0
0 0 0 0 0 0 0 0 0 0 0 0 0 0 0 0 0 0 0 0 0 0 0 0 0 0 0 0 0 0 0 0 0 0 0 0 0 0 0 0 0 0 0 0
0 0 0 0 0 0 0 0 0 0 0 0 0 0 0 0 0 0 0 0 0 0 0 0 0 0 0 0 0 0 0 0 0 0 0 0 0 0 0 0 0 0 0 0
0 0 0 0 0 0 0 0 0 0 0 0 0 0 0 0 0 0 0 0 0 0 0 0 0 0 0 0 0 0 0 0 0 0 0 0 0 0 0 0 0 0 0 0
0 0 0 0 0 0 0 0 0 0 0 0 0 0 0 0 0 0 0 0 0 0 0 0 0 0 0 0 0 0 0 0 0 0 0 0 0 0 0 0 0 0 0 0
0 0 0 0 0 0 0 0 0 0 0 0 0 0 0 0 0 0 0 0 0 0 0 0 0 0 0 0 0 0 0 0 0 0 0 0 0 0 0 0 0 0 0 0
0 0 0 0 0 0 0 0 0 0 0 0 0 0 0 0 0 0 0 0 0 0 0 0 0 0 0 0 0 0 0 0 0 0 0 0 0 0 0 0 0 0 0 0
0 0 0 0 0 0 0 0 0 0 0 0 0 0 0 0 0 0 0 0 0 0 0 0 0 0 0 0 0 0 0 0 0 0 0 0 0 0 0 0 0 0 0 0
0 0 0 0 0 0 0 0 0 0 0 0 0 0 0 0 0 0 0 0 0 0 0 0 0 0 0 0 0 0 0 0 0 0 0 0 0 0 0 0 0 0 0 0
0 0 0 0 0 0 0 0 0 0 0 0 0 0 0 0 0 0 0 0 0 0 0 0 0 0 0 0 0 0 0 0 0 0 0 0 0 0 0 0 0 0 0 0
0 0 0 0 0 0 0 0 0 0 0 0 0 0 0 0 0 0 0 0 0 0 0 0 0 0 0 0 0 0 0 0 0 0 0 0 0 0 0 0 0 0 0 0
0 0 0 0 0 0 0 0 0 0 0 0 0 0 0 0 0 0 0 0 0 0 0 0 0 0 0 0 0 0 0 0 0 0 0 0 0 0 0 0 0 0 0 0
0 0 0 0 0 0 0 0 0 0 0 0 0 0 0 0 0 0 0 0 0 0 0 0 0 0 0 0 0 0 0 0 0 0 0 0 0 0 0 0 0 0 0 0
0 0 0 0 0 0 0 0 0 0 0 0 0 0 0 0 0 0 0 0 0 0 0 0 0 0 0 0 0 0 0 0 0 0 0 0 0 0 0 0 0 0 0 0
0 0 0 0 0 0 0 0 0 0 0 0 0 0 0 0 0 0 0 0 0 0 0 0 0 0 0 0 0 0 0 0 0 0 0 0 0 0 0 0 0 0 0 0
Wind_Speed
7 5 4 7 9 8 10 10 10 10 9 10 6 5 4 3 2 1 1 1 2 2 2 2 2 2 2 2 3 3 3 4 4 4 3 3 3 3 3 3 4 4 3 4
5 6 7 10 11 12 12 10 11 9 11 8 5 2 2 3 3 3 3 4 3 3 2 2 3 2 2 3 3 3 4 4 4 3 3 3 3 3 3 3 3 3 4 4
4 3 3 10 11 11 8 6 8 11 11 4 3 4 4 4 4 4 5 4 4 4 4 4 4 4 4 4 3 3 4 4 3 3 3 3 3 3 3 3 3 4 4 4
2 1 10 8 3 6 7 6 7 6 4 4 4 4 3 3 3 4 4 4 4 4 4 3 3 3 2 2 2 3 3 3 4 4 4 3 3 4 4 3 4 4 5 5
3 5 9 6 3 3 5 5 4 5 4 3 1 2 3 2 2 4 4 4 4 4 4 3 3 2 2 2 2 2 4 4 4 4 4 4 4 5 4 3 4 4 4 5
4 5 8 5 2 1 3 4 3 4 4 2 2 1 4 3 3 3 3 3 3 2 1 2 2 2 2 2 3 4 5 5 4 4 4 5 5 5 3 3 5 4 5 5
7 7 8 4 2 1 3 5 2 2 3 3 4 5 4 3 3 3 3 3 2 2 2 3 2 2 3 3 5 5 4 4 3 4 4 5 4 3 3 3 4 4 5 5
5 7 8 1 1 3 4 1 1 1 1 2 3 3 3 3 3 2 2 2 2 2 2 2 2 2 3 5 5 4 3 3 4 4 4 3 3 3 3 3 4 4 4 5
6 6 3 2 4 4 2 2 2 2 2 2 3 4 4 3 3 3 3 2 2 2 2 3 3 3 4 6 4 3 3 4 4 4 3 3 3 3 3 3 3 4 4 4
4 6 4 4 3 3 2 3 2 2 3 2 3 4 4 4 3 3 3 3 2 2 2 3 3 4 5 5 3 3 4 4 3 3 3 3 3 3 3 3 4 4 4 5
5 6 3 3 3 3 2 1 2 3 2 3 3 4 4 4 4 3 3 3 2 3 4 5 4 4 4 4 3 3 4 4 3 3 3 3 3 4 4 5 5 6 5 5
7 6 4 5 4 3 2 3 4 3 3 3 3 4 4 3 3 3 3 3 3 3 4 4 4 4 5 4 3 4 4 4 3 3 3 3 3 4 6 7 10 11 10 8
6 5 5 5 4 3 3 4 4 3 4 4 4 3 3 3 3 3 3 3 4 4 4 4 4 5 5 4 4 4 5 5 3 3 3 3 3 4 5 5 7 9 10 11
4 3 4 4 4 3 3 4 4 3 3 3 3 3 3 3 3 3 4 4 4 4 4 4 5 6 5 4 4 5 5 6 5 4 4 4 4 4 4 5 5 5 6 9
3 3 4 4 3 3 3 3 3 4 4 3 3 3 3 3 4 4 4 4 4 4 5 5 5 7 5 4 4 5 5 4 4 4 4 4 4 4 5 5 5 5 4 5
3 2 2 3 3 3 3 3 4 4 4 4 4 4 4 4 4 5 4 3 4 5 6 6 7 7 5 5 5 4 4 7 6 4 4 4 4 4 5 5 5 5 5 5
2 3 3 4 4 4 4 4 5 5 4 4 4 4 4 4 4 5 5 4 5 6 6 6 7 7 6 5 5 4 4 5 7 4 4 4 4 5 5 5 5 6 6 6
1 2 3 4 4 4 4 4 4 4 4 4 4 3 4 4 5 6 6 6 5 6 6 6 6 6 5 5 4 4 4 4 4 4 4 4 5 5 5 5 6 6 5 6
3 3 3 3 3 3 3 4 4 4 4 4 4 4 5 5 5 6 6 6 6 7 7 6 9 7 6 6 6 4 4 4 4 4 4 7 6 4 5 5 5 5 5 5
3 3 4 4 4 3 3 4 4 4 4 4 4 4 5 6 5 5 5 6 6 6 6 7 6 6 6 6 7 3 4 4 5 5 4 5 5 5 5 5 5 5 5 5
5 5 5 4 5 4 4 4 4 5 5 4 4 6 7 7 6 5 5 7 6 5 6 9 6 5 5 6 7 4 4 4 5 5 5 5 5 5 5 5 5 5 5 5
5 5 5 5 5 6 5 4 4 5 6 5 6 6 6 7 7 6 6 6 7 9 6 5 5 7 9 9 4 4 4 5 5 4 5 5 5 5 5 5 5 5 5 5
5 6 6 6 6 6 6 5 5 5 6 6 6 6 7 7 5 5 7 5 5 9 7 5 8 13 14 7 4 4 5 5 5 5 5 5 5 5 5 6 5 5 5 5
6 6 6 6 5 5 7 7 6 5 6 6 6 6 6 6 5 5 5 9 11 12 6 9 13 14 12 4 4 4 5 5 5 5 5 5 4 5 5 5 5 4 4 5
6 6 6 6 6 6 6 7 6 6 6 5 6 6 5 4 5 6 5 6 10 11 6 9 13 13 7 4 4 4 4 4 5 4 4 4 4 4 4 4 4 4 4 4
5 5 5 5 5 5 5 5 5 5 5 6 6 5 4 4 5 5 5 6 8 10 7 5 6 7 4 4 4 4 4 5 5 4 4 4 4 4 4 3 4 4 4 4
6 5 4 5 4 4 4 5 5 6 6 6 7 6 5 5 5 5 6 5 6 6 5 5 5 4 4 4 4 4 4 3 3 3 3 3 3 3 3 4 3 3 3 3
Wind_Direction
247 257 239 240 239 219 215 212 220 242 245 263 263 252 248 236 216 193 209 211 213 222 235 229 222 224 223 225 218 201 193 202 218 223 220 218 221 223 222 220 223 222 225 232
265 255 250 260 249 236 235 230 234 251 262 261 265 255 243 230 211 206 218 220 224 228 233 234 230 231 237 239 233 206 205 219 222 217 216 219 226 226 228 233 232 225 226 230
259 272 303 261 232 218 215 212 201 228 244 252 258 252 233 222 218 223 224 224 221 217 218 222 223 218 223 229 224 213 218 225 220 215 218 226 228 225 229 232 231 236 236 234
238 258 241 244 218 195 204 230 222 229 241 233 233 247 243 212 212 235 243 239 231 227 228 231 226 226 230 232 220 224 233 232 224 214 221 226 225 231 234 230 230 234 238 238
197 232 268 282 258 188 194 254 234 218 240 242 235 11 312 281 238 232 237 238 233 226 224 218 219 218 209 229 238 242 244 243 236 224 226 227 230 234 231 230 238 237 237 235
195 218 243 250 258 230 136 256 256 200 219 227 128 196 263 286 287 274 262 250 240 229 220 213 227 201 201 234 237 245 248 248 242 229 227 231 235 236 231 229 239 242 247 240
215 233 257 268 288 81 184 243 275 210 213 204 200 219 245 280 290 277 272 264 233 212 222 232 224 193 222 241 246 249 252 251 246 236 233 236 238 237 235 236 242 246 254 256
200 223 248 282 103 190 229 262 291 232 221 223 245 266 271 274 282 289 288 277 249 224 249 255 227 207 235 249 254 253 247 244 247 247 245 241 233 242 235 229 242 252 258 268
201 225 259 228 222 244 236 242 257 242 240 234 258 270 270 267 266 273 272 270 257 234 253 265 242 219 239 257 258 249 244 247 252 256 253 241 231 239 244 233 238 248 247 259
250 269 278 279 279 279 251 242 257 248 248 240 253 266 274 278 280 280 278 271 265 253 257 270 264 249 246 257 251 240 247 254 253 254 260 257 243 233 235 235 240 246 248 253
248 263 283 274 260 263 272 273 272 276 261 248 249 262 262 267 273 276 281 280 265 251 255 264 267 267 266 256 239 244 252 256 258 254 253 255 252 242 241 237 234 241 244 242
245 244 233 257 269 266 259 268 264 268 282 278 255 260 269 272 273 275 280 284 282 276 272 275 272 270 271 261 241 241 254 254 249 251 254 253 262 278 263 259 265 260 257 253
248 262 251 256 267 261 255 269 267 260 263 273 271 260 261 268 274 278 284 283 275 272 274 277 279 277 275 267 250 240 245 250 248 245 247 252 255 263 282 288 275 267 263 263
255 255 261 257 258 265 258 268 273 284 283 272 269 270 267 275 284 286 283 280 278 277 277 278 279 279 277 267 255 250 248 250 248 244 242 246 248 252 258 268 279 280 273 270
264 246 244 261 273 282 277 276 283 288 286 283 273 269 271 276 278 281 285 289 292 288 283 280 278 279 280 267 257 255 253 252 247 246 244 245 247 252 255 258 261 269 276 275
281 286 278 280 285 293 295 281 272 273 275 276 279 278 274 272 276 284 291 292 290 289 286 282 278 278 278 268 262 259 255 258 259 251 249 249 249 251 255 256 259 261 264 265
291 288 289 290 288 288 281 270 264 268 275 278 282 288 293 297 297 296 296 294 285 281 280 278 279 282 279 267 257 256 255 258 260 256 248 248 249 250 252 254 257 259 260 261
270 266 267 265 271 282 295 296 289 284 279 280 287 293 293 291 291 293 295 300 300 295 288 281 282 288 284 275 265 258 252 250 248 248 251 253 255 251 253 254 257 262 268 270
328 322 315 306 296 287 288 291 293 292 292 291 288 284 281 280 280 286 293 295 294 294 293 288 292 292 284 277 275 258 252 254 258 258 257 265 269 258 256 257 260 260 264 267
314 314 313 309 309 299 294 298 302 303 299 294 291 292 292 287 283 284 287 283 274 272 283 290 291 284 281 277 277 261 254 254 257 261 260 256 257 259 258 260 262 262 263 263
307 304 301 300 302 299 291 287 290 291 294 292 283 282 285 287 286 283 285 288 285 279 285 292 289 281 281 281 281 262 254 255 256 255 257 257 259 259 259 259 260 262 263 263
302 300 300 300 298 295 292 286 280 282 288 288 283 281 285 288 288 282 268 266 281 294 297 286 281 284 290 290 270 258 257 258 257 254 253 254 256 259 260 259 258 261 261 260
289 288 290 290 287 288 293 291 282 280 283 284 285 284 280 279 279 281 289 284 282 293 295 282 288 295 297 289 266 259 258 259 260 259 257 257 254 255 258 259 259 260 262 263
289 289 288 289 293 294 294 293 290 285 279 280 279 276 276 283 284 267 265 289 298 299 292 290 297 300 301 284 266 262 260 260 260 260 262 262 261 260 258 259 261 263 263 262
290 289 291 296 295 289 287 293 296 292 288 286 284 280 273 263 271 285 287 287 294 300 295 296 300 301 298 281 272 267 264 262 263 263 259 261 261 261 260 259 258 261 262 263
291 290 286 281 279 285 292 294 293 294 295 295 293 288 283 279 277 282 286 287 289 296 295 290 291 294 285 279 276 273 271 276 277 271 262 260 258 258 260 260 260 261 261 260
296 294 294 295 294 293 293 293 292 293 293 292 294 295 292 292 290 290 291 292 293 292 290 288 285 281 280 280 281 279 275 273 271 267 263 259 258 256 258 259 264 265 263 260